RH
11 11 12 15 17 22 29 39 48 50 51 55 60 69 79 88 94 99 102 102 102 101 95 88 83 79 76 76 75 74 74 74 75 76 77 77 76 76 75 72 71 70 69 68 67 65 61 59 56 54 52 50 48 46 43 41 40 41 42 41 37 31 25 20 17 15 16 17 18 18 17 17 17 17 17 16 16 15 15 15 15 15 15 16 16 16 16 16
12 10 11 11 12 18 23 30 40 47 49 50 54 58 65 74 83 91 98 102 102 99 97 93 87 83 81 78 78 78 79 81 81 80 79 78 77 75 73 71 70 68 67 66 64 62 61 59 57 55 52 49 46 42 39 40 43 43 40 34 27 22 18 16 16 16 17 18 18 18 18 18 17 17 17 16 16 16 17 17 17 17 17 17 17 17 17 17
18 13 11 10 10 14 19 25 33 45 51 52 53 54 58 65 72 78 86 94 98 97 95 95 91 88 86 83 82 84 84 83 81 79 79 78 76 75 75 73 72 70 68 67 66 64 63 61 57 53 49 45 41 39 41 44 43 38 30 24 20 17 16 17 17 18 18 18 18 19 19 18 18 17 17 18 18 19 19 19 19 19 18 18 18 18 17 17
20 16 14 12 12 14 18 25 32 43 55 61 57 52 56 60 63 69 76 82 87 92 92 93 93 90 88 86 85 84 82 80 78 79 80 79 79 79 79 78 76 74 72 70 69 66 63 59 54 49 44 40 41 44 46 43 36 28 22 19 17 17 18 19 19 19 19 19 19 20 19 18 17 18 18 19 20 20 21 21 20 20 19 19 18 18 18 17
20 19 18 16 16 18 22 27 33 44 58 68 63 56 58 58 60 64 68 73 77 82 87 88 89 88 86 84 82 81 79 77 80 82 84 86 87 86 85 84 81 78 75 71 67 63 59 54 50 45 42 44 47 48 42 34 26 21 18 17 18 20 21 20 20 19 19 20 20 20 19 18 18 19 20 21 21 21 21 20 20 19 19 19 19 18 18 18
26 23 20 22 22 24 29 33 40 52 65 70 67 64 64 60 60 64 63 66 72 74 79 82 82 82 80 80 79 78 79 81 85 90 94 95 94 92 89 86 82 78 73 68 64 60 56 51 47 45 47 50 48 41 32 24 20 18 17 19 21 21 21 21 21 21 20 21 21 20 19 19 20 20 21 22 21 21 20 20 19 19 19 19 19 18 18 18
32 30 25 24 29 39 44 44 47 59 67 70 71 72 77 75 65 65 64 62 66 68 72 74 75 76 76 79 79 81 86 91 95 98 99 97 94 91 88 83 78 73 69 66 63 59 54 50 49 50 52 50 40 30 23 19 18 18 20 21 22 22 22 22 22 22 22 22 21 21 21 21 21 22 22 22 21 20 19 19 19 18 18 18 18 18 18 17
37 39 36 33 41 54 54 46 48 57 63 69 73 72 81 89 74 64 64 62 62 63 65 67 69 74 78 81 85 91 99 103 103 101 99 95 92 87 82 78 73 70 67 65 63 59 55 53 54 55 50 40 29 22 19 19 19 20 22 23 23 23 22 23 24 24 22 21 21 22 23 22 23 23 23 22 20 20 19 19 19 19 18 18 18 17 17 17
41 45 51 54 56 58 51 46 54 58 60 67 73 73 78 86 79 64 60 59 59 60 61 64 69 76 82 88 94 103 107 107 104 100 98 95 90 85 80 76 72 69 68 67 65 60 58 59 58 52 40 29 22 19 19 21 22 23 24 23 24 24 24 25 25 25 23 22 23 24 24 24 24 23 22 21 20 20 19 20 20 20 18 18 17 17 17 16
45 53 65 65 57 53 50 53 61 60 61 66 71 78 76 72 70 62 58 59 60 63 68 71 77 84 91 98 104 108 109 106 103 100 97 92 88 84 80 79 76 76 76 74 68 64 63 61 54 42 30 22 19 20 21 23 25 25 25 25 25 25 26 27 27 26 26 25 25 25 26 26 25 24 23 22 22 22 22 22 21 20 19 17 17 17 17 17
46 56 67 69 65 63 59 56 59 62 66 67 68 72 67 60 61 61 61 63 65 69 75 81 88 96 102 105 106 109 108 105 102 99 94 89 87 86 87 87 87 87 84 77 70 66 64 57 45 32 23 20 20 22 24 25 26 26 26 26 26 27 29 29 28 28 28 27 26 26 27 27 25 24 25 24 25 25 25 24 22 20 19 18 17 16 17 18
48 54 63 77 89 89 83 68 58 61 66 67 69 69 67 66 66 65 65 65 69 75 81 88 98 106 108 108 110 110 107 104 101 99 96 94 94 96 96 96 96 92 84 75 70 67 61 49 35 24 20 21 22 24 26 27 26 27 28 27 28 30 32 30 29 29 28 27 26 27 28 28 27 27 27 27 27 27 27 25 23 21 19 18 17 17 17 18
52 58 67 86 100 99 101 91 67 61 66 71 76 77 75 75 74 72 71 69 72 79 86 93 103 109 110 111 112 109 107 105 103 102 99 99 101 101 100 101 99 91 82 75 71 66 55 39 26 21 21 22 24 25 27 27 27 29 28 29 32 34 32 30 29 29 28 27 28 28 28 29 30 30 30 29 29 28 27 25 23 22 20 19 19 19 19 19
51 58 70 87 100 101 103 97 80 68 67 70 79 86 85 84 89 89 85 84 85 88 92 97 102 104 105 106 105 106 107 104 103 102 101 101 102 101 100 100 97 88 80 74 70 62 45 29 21 21 22 23 25 26 27 28 29 29 29 33 36 34 31 30 29 28 28 28 29 28 28 31 32 31 30 29 29 29 28 26 25 23 22 21 22 23 22 21
52 53 60 74 92 102 100 95 88 76 70 73 76 85 95 94 92 96 98 99 99 100 99 98 98 98 99 101 102 104 104 101 102 103 103 102 101 102 101 98 92 84 76 72 67 52 33 22 21 22 23 25 27 28 30 30 30 30 32 36 35 31 30 30 29 28 29 30 30 30 30 32 32 30 29 28 29 29 28 26 25 24 23 24 25 26 25 23
54 51 51 61 80 99 102 100 99 90 87 91 80 77 95 96 84 90 103 107 107 107 105 103 103 101 101 101 100 101 101 103 104 104 102 101 102 103 101 95 87 80 75 71 58 37 24 21 22 23 26 28 29 30 31 31 32 32 34 34 31 31 31 30 30 30 30 32 33 32 31 32 31 30 29 29 29 28 28 26 25 25 25 26 27 28 29 26
55 53 50 52 66 90 104 104 104 102 100 101 92 85 94 99 91 93 102 106 106 105 105 105 104 100 99 97 98 100 102 104 104 101 101 101 103 102 97 89 82 80 76 62 41 25 22 23 25 27 29 30 31 32 33 33 33 33 33 32 31 33 33 32 32 33 32 33 35 35 31 31 32 32 30 30 30 29 29 28 27 27 27 27 29 31 31 28
52 53 52 50 53 71 95 103 103 101 100 101 100 97 98 100 100 99 100 102 102 101 101 101 99 98 99 99 101 102 102 102 101 100 102 103 103 99 91 83 82 83 68 43 26 23 24 24 26 28 29 31 33 34 34 33 33 33 32 33 35 35 34 34 34 33 34 34 36 37 33 31 33 34 33 32 32 31 31 30 29 28 28 29 30 32 31 29
48 50 51 51 48 51 68 89 102 101 99 100 101 100 100 101 101 100 100 101 101 100 100 99 99 101 103 102 101 101 100 100 100 102 105 104 100 93 86 85 86 76 49 27 23 24 23 24 26 28 30 32 33 34 34 33 34 35 35 36 38 37 35 36 34 34 35 36 36 37 37 35 36 37 35 34 33 32 32 31 30 29 29 30 32 33 31 28
42 44 47 49 48 46 46 60 86 102 101 99 100 100 100 100 101 101 100 101 100 98 99 101 101 103 104 102 101 101 100 100 102 104 102 98 93 90 91 91 80 53 30 23 24 24 24 25 27 28 31 32 33 34 34 36 37 37 39 39 39 40 39 37 35 35 34 35 34 36 39 38 36 37 36 34 33 32 32 31 30 30 30 31 33 33 31 28
34 37 42 45 46 47 43 40 54 84 102 102 102 102 102 102 100 100 101 101 98 97 100 101 100 104 101 95 95 94 91 91 94 94 93 93 93 97 99 85 57 32 24 25 25 24 25 26 28 29 32 33 35 36 37 39 39 40 42 41 40 42 41 37 35 34 32 32 34 36 40 38 35 36 35 33 33 32 31 31 30 29 30 32 34 33 30 27
29 31 35 40 41 43 46 47 55 80 100 105 103 100 102 105 103 100 100 99 98 99 101 101 102 104 94 86 86 86 87 88 89 91 93 96 100 103 91 60 34 25 26 26 25 26 26 28 30 32 34 35 36 38 39 41 43 44 44 41 41 41 40 37 34 32 29 30 34 37 40 39 35 35 36 34 32 32 30 30 30 30 31 33 34 32 29 27
24 28 31 33 38 42 45 58 81 96 100 101 100 95 97 103 103 100 99 99 100 100 101 102 102 98 90 91 95 95 94 93 93 97 100 103 105 93 64 35 26 27 27 26 26 27 29 32 33 35 36 37 38 39 40 43 45 45 42 39 39 38 37 37 35 32 29 29 33 36 42 42 37 36 37 35 33 31 30 30 30 31 32 33 33 31 28 26
23 27 29 31 36 41 44 65 92 100 99 102 97 93 98 101 100 100 100 100 100 101 101 99 95 91 92 98 102 101 99 97 98 102 105 102 90 64 38 27 27 28 27 28 29 30 33 35 36 37 38 38 39 40 41 42 42 41 38 37 38 36 35 34 35 35 33 32 33 35 42 44 39 37 37 34 33 31 31 31 30 31 32 32 31 29 27 25
25 27 30 35 38 43 58 83 101 101 101 101 93 94 100 100 100 100 100 100 101 101 96 88 86 91 98 103 103 102 101 101 103 105 101 84 58 36 28 28 29 29 30 30 31 33 35 36 37 38 39 40 42 43 43 42 40 38 36 36 36 36 35 35 35 36 35 35 36 36 40 42 39 36 35 33 33 32 31 31 30 31 31 30 29 28 26 24
26 30 36 41 45 62 84 98 103 100 98 96 93 99 102 99 101 100 99 101 100 94 85 83 89 94 99 104 104 103 103 104 104 101 86 58 35 28 29 29 29 30 31 31 32 34 36 37 38 38 40 42 44 44 43 41 39 37 36 36 36 36 36 36 36 37 37 36 37 38 39 39 37 35 35 34 33 32 31 30 30 30 29 29 28 28 27 25
30 36 42 49 61 83 99 101 100 94 90 95 99 101 101 100 101 100 99 98 92 87 87 92 97 98 102 106 106 105 105 105 102 88 62 37 28 29 29 30 31 31 32 32 33 34 36 37 38 40 41 44 46 46 44 41 40 39 39 38 38 38 38 39 39 39 39 39 40 40 39 38 37 36 36 34 33 32 30 30 29 29 28 28 29 29 27 25
34 38 46 64 85 98 102 101 100 95 95 102 102 100 101 100 100 98 95 95 95 94 98 99 98 102 106 105 105 104 103 104 93 66 40 29 30 31 31 31 31 32 33 34 35 36 37 39 39 41 43 46 48 47 45 42 42 42 41 41 42 41 41 42 43 43 42 42 42 42 40 39 38 36 35 33 32 31 30 29 28 28 28 29 31 30 28 25
35 45 65 87 101 104 102 99 99 100 100 101 100 101 101 99 98 95 93 98 101 100 101 98 96 101 103 100 102 102 102 98 75 45 31 30 32 31 32 32 32 33 34 34 37 38 39 40 41 43 45 48 48 46 45 43 43 43 43 43 43 43 45 46 46 46 45 44 45 43 41 40 38 35 33 31 30 29 29 29 29 29 30 31 32 30 27 25
40 65 92 104 104 101 100 100 101 102 101 100 101 100 100 100 98 93 96 101 101 102 100 93 93 99 101 101 102 103 101 86 55 33 29 31 32 32 33 33 33 34 35 36 37 38 40 41 43 46 47 47 46 44 44 43 43 43 44 44 45 46 48 49 48 48 48 48 46 43 40 38 36 32 30 30 29 29 29 29 29 29 30 31 30 28 26 24
56 88 107 104 101 100 100 101 103 102 101 100 100 99 101 99 93 92 100 101 101 102 94 88 94 101 102 103 103 104 97 69 40 30 31 32 33 34 33 34 35 35 36 37 37 39 41 43 46 48 47 46 45 44 44 44 44 44 45 47 49 49 50 50 49 50 51 49 44 40 38 35 33 32 31 30 29 30 31 32 33 35 34 32 29 26 24 24
78 103 108 100 98 101 102 101 101 100 99 99 100 101 98 92 91 98 102 102 104 99 88 90 100 100 101 102 102 103 86 52 32 30 33 33 34 34 34 35 36 37 38 39 40 42 43 45 47 47 46 46 45 45 45 45 46 47 48 49 48 47 47 47 48 48 47 45 41 38 35 33 33 33 32 33 38 43 47 47 45 43 42 37 29 23 23 25
97 106 105 101 98 98 99 99 99 100 100 101 99 93 89 89 96 101 101 105 106 93 85 95 102 100 102 102 102 99 74 42 30 32 34 34 35 35 36 37 38 40 41 42 44 45 46 46 46 46 46 46 45 46 46 46 47 48 48 46 45 43 43 43 43 42 41 42 40 37 36 36 33 35 41 51 62 66 63 55 48 44 43 38 28 22 25 27
104 102 103 103 97 95 97 98 101 102 99 96 92 89 93 99 101 101 104 107 99 85 87 99 101 100 102 102 103 93 63 37 31 33 35 36 36 37 37 39 40 41 43 43 43 44 43 43 43 43 44 44 44 44 44 45 46 46 45 44 44 44 42 41 40 39 37 37 38 39 41 39 37 49 66 78 81 75 63 51 42 39 37 33 28 26 27 27
103 101 102 99 94 96 97 97 97 98 97 95 96 99 101 102 102 104 107 100 86 83 94 102 100 100 101 101 101 86 55 36 33 34 36 37 37 38 38 40 41 42 43 42 41 40 39 40 39 40 41 40 42 42 43 45 46 46 45 44 45 44 42 40 38 36 33 33 38 41 41 45 57 76 87 87 85 74 59 45 36 32 32 33 33 29 26 26
104 102 101 97 96 97 96 96 97 99 100 100 102 102 101 102 104 106 104 92 84 91 99 101 100 100 101 101 99 81 52 35 34 35 37 39 39 40 40 40 41 42 42 41 39 36 37 38 38 38 39 39 42 45 47 48 48 48 45 44 44 42 41 39 35 34 31 32 37 38 47 67 82 90 88 82 81 71 54 42 34 33 36 38 34 27 27 34
102 100 100 100 100 99 98 99 100 101 101 101 101 100 101 104 103 105 104 92 89 97 100 100 100 100 102 101 96 76 49 35 35 37 39 40 41 41 41 41 41 41 41 39 36 35 36 40 41 40 41 45 49 51 52 51 49 48 45 44 42 39 39 36 33 33 31 34 38 45 73 95 88 80 78 74 73 63 49 43 39 36 36 34 32 32 38 47
101 100 101 101 100 100 101 101 101 100 100 100 99 100 102 102 100 101 98 91 92 98 100 100 100 100 102 100 92 71 46 36 36 37 40 42 42 42 42 42 42 41 40 37 36 37 37 41 46 47 49 53 54 52 52 50 48 47 45 42 40 38 37 34 35 36 37 44 51 62 96 110 88 70 62 59 63 55 43 41 36 32 35 38 43 47 51 56
101 95 96 100 101 100 100 99 100 100 100 100 100 101 100 97 95 94 92 94 99 101 100 100 100 100 101 99 91 67 42 35 37 38 41 43 43 44 43 43 42 40 40 38 38 39 39 42 49 53 53 54 54 52 50 48 46 45 44 41 39 38 37 37 41 47 52 60 63 68 94 114 100 70 44 42 52 44 31 32 33 36 46 55 59 57 56 58
84 77 82 92 97 100 101 100 101 100 100 100 100 101 97 93 94 95 97 101 102 101 100 100 100 101 100 99 88 62 39 35 38 38 41 42 43 44 44 43 43 41 41 40 39 41 42 45 51 55 54 53 53 49 46 45 43 43 44 43 41 40 40 46 55 63 67 69 66 61 77 110 113 70 33 34 41 34 29 34 41 49 59 66 67 59 55 56
83 79 81 85 87 92 96 97 99 101 102 102 101 100 96 96 100 101 102 102 100 101 101 100 101 100 101 98 81 53 38 36 38 39 41 43 43 44 44 44 43 42 42 41 42 42 43 46 50 53 53 51 50 46 43 42 41 44 47 46 46 47 49 58 70 76 74 70 65 51 55 97 109 60 27 35 40 41 45 45 50 58 62 66 68 61 54 54
100 97 96 95 92 93 95 96 99 101 103 103 102 99 99 102 102 101 100 100 100 102 101 100 101 99 101 94 69 44 37 37 39 41 42 43 44 44 44 44 43 43 43 43 44 44 43 45 47 48 48 47 47 46 44 42 42 46 50 50 53 55 57 66 75 77 72 65 59 41 34 69 81 44 30 46 51 56 60 53 52 57 55 59 67 65 58 54
103 102 104 103 100 102 104 104 105 105 104 105 105 104 103 101 98 97 97 99 102 102 100 101 100 100 101 86 57 39 37 38 40 42 44 45 45 44 44 45 44 44 44 43 44 44 43 43 42 41 43 45 48 49 47 46 47 51 54 56 60 59 60 67 73 72 64 53 47 33 25 45 54 39 43 57 57 63 67 57 51 51 50 56 67 71 63 56
102 102 106 104 102 106 109 110 113 111 107 108 108 105 100 95 94 97 99 102 103 100 100 101 99 102 98 72 45 37 38 38 39 42 45 45 44 45 45 45 45 44 44 43 43 42 41 41 39 37 37 40 46 50 49 49 51 54 60 64 62 56 55 64 70 64 48 35 35 32 31 45 53 47 52 58 57 65 74 67 57 52 50 55 66 73 65 56
101 106 109 106 105 110 111 110 110 108 106 108 104 99 96 94 94 99 102 103 102 101 101 99 101 103 84 52 38 38 38 37 39 41 44 44 44 45 45 45 45 44 42 40 39 38 38 40 40 37 38 41 46 48 49 52 55 62 71 68 54 45 50 62 65 52 33 28 37 41 39 49 57 54 56 62 61 68 82 85 75 63 55 54 63 69 63 55
100 109 108 103 106 110 107 103 103 104 104 103 100 98 98 98 98 100 102 103 103 101 98 100 104 93 62 39 37 39 38 38 39 41 42 42 43 44 43 43 42 41 40 38 37 36 36 40 42 42 44 48 51 53 55 57 64 77 80 61 42 43 54 60 53 40 32 34 44 50 46 48 55 56 58 64 63 68 85 96 88 72 60 55 59 63 61 58
100 107 104 102 108 107 102 101 102 103 101 97 98 100 99 99 101 100 101 104 103 100 101 104 95 67 42 37 40 38 38 40 40 41 41 41 42 42 41 41 40 39 38 36 36 36 37 42 45 46 49 54 57 59 62 68 79 88 76 50 39 47 51 47 41 38 40 41 46 53 52 51 55 55 57 61 61 65 83 97 91 72 58 54 57 62 63 62
99 104 102 103 108 105 102 100 98 99 99 97 99 100 100 100 100 101 102 102 101 102 103 92 66 43 37 39 38 37 39 40 40 41 40 40 40 39 39 39 38 37 37 38 39 40 41 44 47 50 53 57 61 66 74 79 80 76 60 42 40 43 39 39 45 47 45 45 49 55 57 58 57 55 58 63 62 63 76 90 89 70 55 55 60 64 64 62
98 103 103 104 107 105 101 98 96 99 100 99 100 101 100 100 101 102 101 100 103 104 88 61 42 37 39 39 36 38 38 37 39 39 38 38 38 37 37 38 38 39 41 42 42 43 45 48 51 54 59 67 76 79 75 68 61 57 50 40 37 36 38 47 57 55 49 49 55 56 58 64 63 58 61 66 65 63 68 82 86 70 57 58 62 64 62 59
100 103 103 103 103 102 100 99 99 101 100 100 101 100 100 102 102 100 100 102 101 85 57 38 37 39 38 36 37 37 36 36 37 37 36 37 37 37 39 40 41 42 43 45 47 50 50 52 56 57 63 76 80 68 55 52 51 48 41 37 37 39 46 55 62 61 55 54 58 58 58 66 69 66 65 65 64 63 65 79 87 73 60 61 62 62 61 59
94 97 98 99 100 100 100 100 101 101 101 100 100 100 103 103 99 100 104 98 76 52 37 37 39 37 36 37 37 35 36 36 35 36 37 38 39 40 41 42 44 46 49 51 52 52 53 55 58 55 52 59 58 48 47 53 50 40 36 42 47 45 49 57 65 67 61 56 59 62 63 68 69 66 64 63 65 66 68 84 94 78 63 64 65 63 62 62
92 96 98 99 100 100 100 100 101 101 100 101 103 104 103 101 101 103 94 70 45 35 36 38 36 35 36 36 35 35 36 36 37 39 40 40 42 43 45 48 51 51 51 50 51 55 57 57 53 45 41 44 47 45 47 48 41 37 45 52 50 48 53 61 70 75 69 63 66 69 68 69 67 65 64 64 68 68 70 90 102 82 64 64 66 67 69 69
Wind_Speed
22 25 29 34 37 38 41 45 49 50 47 45 44 43 43 44 44 43 42 41 41 41 41 41 40 40 39 38 38 38 38 38 39 39 40 40 41 42 42 43 43 44 45 46 47 49 50 52 53 54 55 55 56 56 57 57 57 57 56 56 56 54 53 50 47 44 43 42 43 45 46 47 48 50 51 52 53 53 54 54 55 55 56 57 58 59 60 61
19 21 27 32 35 37 40 43 46 48 47 45 44 44 43 44 46 43 42 42 42 41 40 40 40 39 38 38 37 37 37 38 38 38 39 40 40 41 42 43 44 45 46 47 48 49 50 50 51 52 53 54 55 56 55 55 55 55 54 53 52 50 48 45 43 40 40 41 43 45 47 48 49 50 51 52 53 53 54 55 56 56 57 58 58 58 59 60
15 18 23 28 32 35 38 39 42 44 45 44 44 45 43 45 46 43 42 42 42 41 40 39 38 38 37 37 36 36 36 36 37 37 38 38 39 40 41 42 44 45 46 47 47 48 48 49 50 52 54 55 55 54 53 53 53 53 52 50 48 46 43 41 40 39 40 42 43 46 47 48 49 50 51 52 52 53 54 55 56 57 57 58 58 58 58 58
13 16 20 24 30 33 36 37 39 42 44 45 46 45 44 46 45 42 43 42 41 40 39 38 37 37 36 35 35 35 35 35 35 36 36 37 38 39 40 42 43 44 45 46 46 47 48 50 51 53 53 53 53 53 53 52 51 50 48 45 43 41 40 40 40 40 41 43 44 46 48 48 49 49 50 51 52 53 54 54 56 57 58 58 58 58 58 58
13 17 19 23 28 32 35 37 38 40 43 45 46 44 45 46 42 42 44 42 40 39 38 37 36 36 34 34 34 34 34 34 34 35 35 36 37 38 39 41 42 44 45 45 46 48 49 50 51 52 52 52 52 52 51 49 47 45 43 41 39 38 39 40 42 42 42 44 46 47 48 48 49 50 50 51 52 53 53 54 55 56 57 58 58 58 58 58
15 17 20 23 27 30 32 36 38 40 44 46 45 43 43 44 42 41 42 41 39 38 37 36 36 35 34 34 34 34 34 33 33 34 34 35 36 38 39 40 42 43 45 46 47 48 49 50 50 51 51 51 50 49 47 45 43 41 39 37 37 38 40 42 43 43 44 46 47 48 49 49 49 50 51 52 52 52 53 53 54 55 56 57 58 59 59 59
16 17 20 24 26 29 33 37 40 42 45 45 44 42 40 40 41 40 39 39 38 37 36 35 34 34 33 33 33 33 32 32 33 33 34 35 36 38 39 40 42 43 44 46 47 48 48 49 50 50 50 49 47 46 44 42 40 38 36 36 37 39 41 42 43 44 45 47 48 49 50 50 50 51 51 52 52 52 53 53 53 54 56 57 58 59 60 60
17 19 20 23 26 30 35 38 39 41 44 43 43 42 39 38 41 40 38 37 36 35 34 34 33 33 33 32 32 31 31 31 32 33 34 35 36 37 39 41 42 43 44 46 47 47 48 49 50 49 48 46 44 42 41 39 37 36 36 37 38 40 42 43 44 46 47 48 49 50 51 51 51 51 52 52 53 53 53 54 54 56 57 58 59 60 61 61
17 20 21 23 27 31 34 34 36 39 41 41 40 40 40 40 41 40 36 35 34 33 33 32 32 32 31 30 30 30 30 31 32 33 34 35 36 37 39 41 42 44 45 46 47 47 48 48 47 46 44 42 41 39 37 36 35 35 36 38 40 41 42 43 45 48 49 49 50 51 52 52 52 52 53 53 54 54 55 56 57 58 59 59 60 60 61 62
18 20 23 25 27 30 30 30 33 36 37 39 38 39 42 42 39 36 34 33 32 32 31 31 30 30 30 29 29 30 31 31 32 33 33 34 36 37 39 41 43 44 45 46 47 47 47 46 45 43 41 39 38 36 35 34 35 36 38 39 41 42 43 45 47 49 49 50 51 51 52 53 53 53 54 54 55 56 57 58 59 60 60 61 61 61 62 62
18 21 24 25 25 25 27 29 31 33 34 36 36 38 40 39 35 32 31 31 31 31 30 30 29 29 29 29 30 30 31 31 32 33 33 34 36 38 39 41 42 43 44 45 46 47 46 45 43 40 39 37 36 34 33 34 36 37 39 40 42 43 44 46 48 49 50 51 51 51 52 53 54 54 54 55 56 58 59 60 60 61 62 62 63 63 63 63
18 21 24 25 24 23 24 26 28 31 33 34 35 36 36 34 33 32 31 31 31 31 31 30 30 30 30 31 31 31 32 32 32 33 34 35 36 38 40 41 42 43 44 45 46 46 45 42 40 38 37 35 34 33 33 34 36 38 40 42 42 43 45 47 48 49 50 51 51 51 52 53 55 55 55 57 58 59 60 61 62 62 63 64 65 66 65 64
17 22 24 25 26 27 26 27 27 28 30 33 34 35 35 34 33 32 32 31 31 31 30 30 30 31 31 32 32 32 32 32 33 33 34 35 37 38 39 40 41 43 44 45 45 45 43 40 38 36 35 33 32 32 33 35 37 39 41 42 42 44 46 47 48 49 50 50 51 51 52 53 55 56 57 58 59 60 61 62 63 64 65 67 68 69 69 67
16 21 25 26 28 30 31 31 30 28 29 30 32 32 33 32 32 31 31 31 31 30 30 30 31 31 32 32 33 33 33 33 33 34 35 36 36 37 38 40 42 44 45 45 45 43 41 38 36 35 34 33 32 33 34 36 37 39 41 42 43 45 46 48 49 49 50 50 51 52 52 54 56 56 57 58 59 61 62 64 65 66 67 68 70 71 71 71
16 19 25 28 30 32 33 33 32 31 30 30 30 30 31 32 32 31 31 31 31 31 31 31 32 32 32 33 33 33 33 33 33 34 35 35 35 37 39 41 43 44 45 45 43 41 39 37 35 34 33 32 33 34 35 37 39 40 41 42 44 46 46 48 50 49 49 50 52 52 53 54 56 57 57 58 60 61 63 65 66 68 68 69 70 71 72 73
18 19 22 26 31 33 34 34 33 31 28 29 31 29 30 32 31 29 30 31 32 32 32 32 32 32 32 33 33 33 33 33 33 33 33 34 35 37 39 42 43 44 45 43 41 39 37 36 34 33 32 32 33 35 36 38 40 41 42 43 44 46 48 49 50 50 50 51 53 53 53 54 56 57 57 59 61 62 64 66 67 68 69 70 71 71 73 73
20 20 21 24 29 34 36 36 35 32 27 27 31 30 29 30 30 29 29 30 31 31 31 31 31 32 32 32 32 32 32 31 31 31 32 34 36 38 40 42 44 44 42 40 38 37 35 34 33 32 32 33 34 36 37 39 41 42 43 44 44 46 49 50 50 51 52 53 54 55 54 54 56 58 59 60 63 65 66 68 69 70 71 71 71 72 73 74
23 23 23 23 27 32 36 38 38 37 32 30 31 31 29 29 30 29 27 28 30 30 30 30 31 31 30 30 29 28 28 28 29 31 33 35 38 40 42 43 43 41 39 37 36 35 34 32 32 32 32 34 35 37 38 40 41 43 43 44 46 48 49 50 51 52 54 55 55 56 57 56 57 59 61 63 65 67 68 69 70 71 72 72 72 73 73 74
25 25 26 26 26 28 33 38 40 41 38 36 36 35 34 32 31 30 28 28 28 28 28 28 27 27 26 26 25 26 27 28 30 32 35 37 39 42 43 43 41 39 37 36 35 34 33 32 31 32 33 34 36 37 39 41 43 44 44 45 48 50 50 50 51 53 56 58 57 58 60 59 60 62 63 65 67 68 69 70 71 72 73 73 73 73 74 75
27 27 28 28 28 28 29 33 39 43 42 41 40 39 38 36 34 32 31 30 29 28 27 27 27 26 26 26 27 28 29 31 33 35 37 39 41 42 41 40 38 37 36 35 34 33 32 31 31 32 33 35 37 39 41 43 44 44 45 47 49 51 51 51 52 54 56 58 59 60 62 63 63 64 66 67 68 70 71 71 72 73 73 73 73 74 75 75
27 29 30 31 30 29 28 29 34 41 44 45 44 43 42 40 37 34 33 32 30 28 27 27 27 27 27 28 29 31 32 34 35 37 38 40 40 40 38 37 36 35 34 33 33 32 31 31 32 33 35 36 38 40 42 44 45 45 47 50 51 51 51 52 53 54 55 58 61 62 64 65 64 65 68 69 70 71 72 72 73 73 74 74 74 75 75 76
28 30 32 33 31 29 29 28 30 34 37 38 39 38 36 34 33 31 29 29 27 25 24 24 25 26 28 30 32 33 34 34 35 36 38 39 38 36 36 35 34 34 33 32 32 32 32 32 33 35 36 38 40 42 43 44 45 46 48 51 51 51 52 54 55 56 56 58 61 63 65 67 66 67 69 70 71 72 73 73 73 74 75 75 75 75 76 76
28 30 32 33 31 29 28 27 29 30 28 30 31 28 23 22 23 24 24 24 23 23 24 25 26 29 31 33 33 34 33 34 35 37 37 36 35 34 34 34 33 32 32 32 31 32 32 33 35 37 38 40 41 42 43 44 45 47 50 51 51 51 53 55 58 60 60 60 62 63 66 69 69 69 71 72 72 73 74 74 75 75 75 75 76 76 76 76
28 30 31 31 30 29 27 27 30 30 28 29 26 19 18 20 22 23 23 22 23 24 26 28 29 32 34 34 34 34 34 35 36 36 35 33 34 34 33 33 32 32 32 32 32 32 33 35 37 38 40 41 42 43 44 45 46 48 50 51 52 53 55 57 60 63 65 66 65 64 66 71 72 71 72 74 74 74 75 76 76 76 76 76 76 76 76 77
27 28 29 29 28 27 26 28 32 32 31 28 21 18 22 25 25 25 25 24 25 26 28 30 31 33 34 34 34 34 35 36 36 34 33 33 33 33 32 31 31 31 31 32 32 33 35 36 38 39 41 42 43 44 45 47 49 51 52 53 54 56 58 60 62 65 67 68 69 67 66 70 74 73 74 75 76 76 77 77 77 77 76 76 76 76 77 77
26 27 27 27 27 25 26 29 32 34 31 26 22 24 28 29 29 29 29 28 28 29 30 31 32 34 34 34 34 35 35 35 34 33 33 33 33 32 31 30 30 31 31 32 33 34 36 37 39 40 41 43 44 45 47 49 52 53 55 56 57 59 61 63 65 67 69 69 69 70 69 71 74 75 76 77 78 79 78 78 78 77 76 76 76 76 77 77
25 26 27 27 26 26 27 27 27 27 26 26 27 30 31 31 32 32 30 29 30 31 31 31 33 33 31 31 32 33 33 33 33 34 34 33 32 31 30 30 31 31 32 33 34 35 37 38 40 41 42 44 45 47 49 52 54 56 57 58 60 62 63 65 67 69 70 71 71 72 72 73 75 77 78 79 80 80 80 79 78 77 76 76 76 76 77 77
26 26 27 27 27 28 28 25 22 21 23 28 32 33 32 32 32 30 28 28 30 30 31 32 33 31 29 29 30 31 32 33 34 34 34 33 32 31 30 31 31 32 33 34 35 37 38 40 41 42 43 45 47 49 52 54 55 58 59 60 62 64 66 68 70 71 71 72 73 74 75 76 78 80 80 80 81 81 81 80 78 77 76 76 76 77 77 76
25 25 27 28 29 29 27 23 23 24 26 29 31 31 31 30 28 27 27 29 30 31 31 33 31 28 28 29 30 31 32 34 34 34 33 32 32 31 31 32 32 33 34 35 36 38 39 41 42 43 45 47 49 51 54 55 57 59 61 62 64 66 67 69 70 71 72 74 75 76 78 79 80 82 82 81 81 80 80 79 78 77 77 76 76 77 76 76
25 26 30 32 29 26 24 24 28 31 31 30 29 29 29 27 26 27 28 30 31 32 33 32 29 29 30 31 32 33 34 35 35 34 33 32 32 32 33 34 34 35 35 36 37 39 40 42 43 45 47 49 50 52 54 56 58 59 61 63 65 66 67 68 70 71 73 75 77 78 80 81 81 82 82 82 81 80 80 79 79 78 77 77 76 77 76 75
26 30 34 33 26 24 26 31 35 35 33 31 30 29 28 27 27 28 29 31 31 33 32 30 29 30 31 32 33 34 35 35 35 34 33 33 33 33 34 35 36 36 37 38 39 40 41 43 45 47 48 50 52 53 55 58 59 61 62 63 64 65 66 68 69 71 74 77 79 80 82 83 82 82 82 82 82 81 80 79 78 77 77 76 76 76 74 73
28 33 35 33 29 31 35 35 35 35 33 32 31 29 28 28 29 29 30 32 33 33 31 28 30 31 32 33 33 34 35 35 35 34 34 34 34 34 35 36 37 38 39 40 41 42 43 45 46 48 50 52 53 55 57 59 61 62 63 63 64 65 66 67 69 70 73 78 80 81 82 82 82 82 82 82 82 81 80 79 76 75 74 74 75 73 72 71
32 34 34 32 32 36 37 34 33 33 31 30 29 28 28 29 29 30 31 32 33 33 30 29 31 32 33 34 34 35 36 36 35 35 35 35 35 36 37 37 39 39 40 41 43 44 46 47 48 50 52 54 56 57 59 61 62 63 64 65 67 68 68 69 70 71 73 76 79 81 83 82 81 82 82 80 80 80 79 78 76 74 72 71 71 70 67 65
34 35 35 33 32 31 30 29 28 28 27 26 26 27 27 27 28 29 30 32 33 31 29 30 32 33 34 35 35 37 37 36 36 36 36 36 37 38 38 39 40 41 42 43 44 46 48 49 51 52 54 56 57 59 60 61 63 64 66 67 69 71 72 73 74 75 73 74 76 78 83 85 81 79 79 79 80 80 78 77 75 71 69 67 66 64 61 59
35 36 34 31 26 24 23 23 23 24 24 25 25 25 24 25 27 28 30 32 32 29 29 32 34 34 35 36 37 38 37 37 37 37 37 38 39 40 40 41 42 42 44 45 46 48 49 51 53 54 55 57 58 60 61 63 64 66 68 69 70 72 75 76 76 77 75 73 73 76 81 84 79 75 77 78 78 78 76 74 71 67 64 62 60 58 55 55
32 31 28 24 22 22 22 22 23 24 24 25 25 25 26 27 28 30 32 32 30 29 31 34 34 35 36 37 37 38 38 38 38 38 39 40 40 42 42 43 44 45 46 47 48 49 51 53 55 55 56 58 59 61 63 65 66 68 70 71 72 74 75 77 76 77 76 73 73 73 75 79 76 73 75 75 74 74 71 69 66 62 58 55 54 54 53 55
27 27 25 24 24 23 23 24 25 25 25 26 27 28 29 30 31 32 33 31 30 31 33 34 35 36 37 38 39 40 40 39 39 39 40 41 42 43 44 45 46 47 48 49 50 51 52 54 57 58 58 60 61 63 65 67 69 71 73 74 74 74 74 76 76 76 76 72 70 68 69 76 76 72 73 71 70 70 67 65 61 56 52 50 51 53 54 57
25 27 28 28 28 27 27 27 27 28 28 29 31 32 32 33 34 34 33 31 30 32 33 34 36 37 38 39 40 41 40 40 40 40 41 42 43 44 45 46 47 48 50 51 52 53 54 55 58 60 60 61 63 65 66 69 71 74 76 76 75 75 74 75 76 77 75 71 66 61 64 76 78 73 71 68 66 66 62 58 55 51 49 50 52 55 57 60
30 32 31 31 31 30 29 29 29 30 31 32 34 34 35 34 35 35 33 32 32 33 35 36 37 38 40 40 41 41 41 41 41 41 42 43 44 45 46 47 48 49 51 52 53 54 55 56 58 60 62 63 65 67 69 71 72 74 76 77 76 76 75 74 75 77 75 71 67 61 62 73 78 75 69 64 61 60 54 50 50 49 50 52 55 58 59 61
32 31 31 32 32 32 31 31 31 31 32 34 35 35 35 35 34 34 33 33 33 35 36 37 38 40 41 41 42 42 41 41 42 42 43 44 45 46 47 48 49 50 52 53 54 55 56 57 58 61 63 65 67 69 70 71 72 74 76 77 78 77 75 72 72 73 73 73 71 63 60 70 77 75 66 59 56 54 50 48 49 51 52 55 58 60 61 63
27 26 28 29 30 32 32 32 32 33 34 35 35 35 35 34 34 33 33 34 35 36 38 39 40 41 42 42 42 42 42 42 43 44 44 45 46 47 48 49 50 52 53 54 55 56 57 58 59 62 65 66 68 69 70 71 71 73 77 79 80 78 74 70 69 71 73 74 72 64 59 66 74 69 58 53 51 51 51 51 52 53 55 57 61 63 64 65
26 26 27 28 29 30 32 33 34 34 35 36 36 35 34 34 33 33 34 35 36 38 39 40 41 42 43 43 42 42 42 43 44 45 45 46 47 48 49 50 52 53 54 55 57 58 58 59 60 62 64 67 68 69 70 70 71 74 78 80 80 77 72 70 70 71 71 71 69 62 54 57 64 60 52 50 51 54 55 55 55 56 57 59 62 66 67 68
29 28 28 29 29 30 32 33 35 36 37 36 35 34 33 33 33 33 34 36 38 40 41 42 43 43 43 43 43 43 43 43 44 46 46 47 48 49 50 51 53 54 55 56 57 58 59 59 60 60 62 65 68 70 71 71 72 75 77 79 77 74 71 70 70 70 69 67 65 57 46 46 53 53 52 53 54 57 59 60 59 58 59 61 64 68 70 71
30 29 29 29 29 30 32 33 34 34 34 33 33 33 33 32 33 34 36 38 39 41 42 43 44 44 44 44 43 43 44 44 44 46 48 49 49 50 51 53 54 55 56 56 57 58 58 60 61 60 59 61 65 68 70 71 72 74 76 76 74 70 69 68 68 68 64 58 56 51 42 41 49 53 54 56 57 59 63 65 65 63 63 63 66 70 73 73
29 28 28 28 28 29 30 30 31 31 32 32 32 32 31 32 34 36 38 39 40 42 43 44 45 45 44 44 43 44 45 45 45 46 48 49 50 51 52 53 54 55 56 56 57 57 58 60 62 63 62 64 65 67 68 68 69 72 73 73 70 67 66 66 65 63 55 47 47 48 44 43 50 54 56 59 60 62 65 69 70 69 68 67 68 71 75 76
28 28 28 28 29 28 28 28 29 30 32 32 31 31 32 34 37 38 39 41 42 44 44 45 46 45 44 44 44 45 46 46 46 47 49 49 50 51 52 53 54 55 56 56 57 58 58 60 63 65 66 69 71 71 70 69 69 71 73 71 66 64 64 63 60 54 48 43 44 49 51 48 51 54 55 58 60 62 66 70 72 72 71 71 71 74 77 79
30 30 30 29 29 28 28 29 30 31 31 31 31 33 35 37 39 40 42 43 44 45 46 46 46 44 44 44 44 45 46 47 47 48 49 49 50 51 52 53 54 55 56 57 58 59 58 60 63 65 67 70 73 73 72 71 70 72 73 69 64 61 59 56 52 49 47 47 47 51 56 55 54 55 57 59 61 62 66 71 73 74 74 73 74 76 79 82
31 31 30 30 29 28 29 30 30 31 31 32 34 36 38 40 41 43 44 45 46 47 46 46 45 44 44 44 45 46 47 47 48 49 49 50 51 52 53 54 55 56 57 58 59 60 59 60 63 64 65 70 73 73 71 71 71 71 71 65 59 56 52 48 48 49 50 52 52 53 57 60 59 59 60 63 64 65 67 72 75 76 76 76 77 79 81 84
30 30 30 29 28 29 29 30 30 31 33 35 37 39 41 43 44 44 45 46 47 47 46 44 44 43 44 45 46 46 47 48 49 49 50 51 52 53 54 55 56 57 59 60 61 62 60 60 61 61 62 68 72 71 70 69 68 67 65 59 52 49 47 47 50 53 54 54 55 55 57 61 64 64 64 66 68 68 70 74 78 79 79 79 79 82 84 86
28 29 29 28 28 29 30 31 33 35 37 38 40 42 43 44 45 45 46 47 47 46 45 43 43 44 45 46 46 47 48 49 49 50 51 52 53 54 55 56 58 59 61 61 62 63 61 59 60 60 59 64 69 68 66 66 64 60 55 52 48 46 47 50 53 57 57 56 57 58 58 61 65 67 67 69 71 72 74 77 81 82 82 82 83 84 86 89
26 27 27 27 28 30 32 34 36 38 39 41 42 43 44 45 45 46 47 47 46 44 43 43 43 45 45 46 47 48 49 50 50 51 52 53 55 56 56 58 59 60 61 61 61 61 60 59 60 58 56 59 63 61 59 59 57 51 46 45 47 48 49 53 57 59 60 58 59 61 62 63 65 67 68 70 73 75 77 80 84 85 84 86 87 89 90 92
25 26 27 28 30 33 35 37 39 40 41 43 43 44 45 45 46 47 47 46 44 42 42 43 44 45 46 47 48 49 50 51 52 52 54 55 56 57 58 58 59 59 59 59 58 58 59 58 58 56 52 53 54 51 49 49 46 43 43 45 47 49 50 54 59 63 63 62 63 65 65 67 68 70 70 71 74 77 79 83 88 89 87 87 89 92 94 95
Wind_Direction
231 222 215 215 213 208 208 211 215 216 216 217 219 222 225 226 226 227 229 232 234 237 240 242 244 246 249 251 254 257 259 261 263 264 266 268 270 272 273 275 276 278 279 281 282 283 284 286 287 288 289 290 292 293 294 295 296 296 296 297 298 297 297 297 297 297 300 303 304 306 307 309 311 311 311 310 309 309 310 310 310 310 310 310 310 309 309 308
221 213 208 209 208 205 205 208 212 214 215 216 219 222 224 227 227 226 229 231 234 237 240 243 245 248 250 252 255 258 260 261 263 264 266 268 270 272 273 275 276 277 279 280 282 283 285 287 288 289 290 292 293 294 296 297 297 298 299 299 298 298 297 297 298 300 303 305 306 308 310 312 312 311 311 310 311 311 311 311 311 312 311 311 310 310 310 309
206 202 201 201 200 200 202 205 208 210 212 214 218 221 223 228 229 227 230 232 235 237 240 243 246 248 250 253 255 258 259 261 263 265 267 268 270 272 274 275 276 278 279 281 282 284 285 287 288 290 291 293 295 296 297 299 300 300 300 299 298 297 298 300 302 304 306 307 309 312 313 313 311 311 311 311 311 312 312 312 312 311 311 311 311 311 311 311
193 190 193 193 191 193 195 200 204 206 207 210 216 220 222 227 229 229 231 233 235 238 241 243 246 248 251 253 255 257 258 260 263 265 267 269 271 273 274 276 278 279 280 282 283 284 286 287 289 292 294 296 298 299 300 301 301 300 299 299 298 299 301 304 306 308 309 311 313 313 311 311 311 311 311 311 311 312 312 312 311 311 311 312 313 313 314 314
187 182 183 185 185 187 190 195 200 203 204 208 214 218 223 227 228 229 232 233 236 238 241 244 246 249 251 253 254 256 259 261 263 266 268 270 273 274 276 278 279 280 281 283 284 286 288 290 293 296 298 300 301 302 302 302 301 300 299 298 300 302 305 307 309 311 313 314 313 311 310 311 312 312 312 311 312 312 312 312 312 312 313 314 315 315 316 316
184 179 178 180 181 183 187 193 197 200 203 208 212 215 223 228 227 229 232 233 236 238 241 244 247 249 251 253 255 257 260 262 265 268 270 273 275 276 278 280 281 283 284 285 287 289 292 295 298 300 302 303 303 303 302 301 300 299 298 300 303 306 308 310 311 313 315 314 311 310 311 313 313 313 313 312 312 312 312 312 314 315 316 317 317 317 317 317
183 179 181 180 179 181 187 194 196 199 204 207 210 213 220 228 228 229 231 233 235 238 241 244 247 250 252 254 256 259 261 264 267 270 273 276 278 279 281 283 284 286 288 290 292 294 297 299 301 303 304 304 303 302 300 299 298 298 300 303 305 308 310 311 312 314 314 312 312 312 313 314 314 314 314 313 312 312 312 314 316 318 319 320 320 320 320 319
184 182 183 183 180 185 194 198 198 202 206 208 211 213 217 226 230 228 230 233 235 238 242 245 248 250 252 254 257 260 263 266 269 272 276 279 281 283 284 285 287 289 291 293 295 298 300 302 304 305 305 303 301 300 298 298 299 301 303 304 307 310 311 312 313 313 313 313 314 314 314 315 315 315 314 313 312 313 315 317 319 320 322 322 323 322 321 321
187 186 184 184 187 195 203 203 201 206 209 210 213 216 219 225 231 231 232 235 238 241 243 246 247 249 251 255 258 262 266 269 272 276 279 282 284 286 287 288 290 291 293 295 298 301 303 305 305 304 303 301 299 298 297 299 301 302 304 306 310 311 312 313 313 313 314 315 315 315 315 315 315 314 313 313 315 316 318 320 321 322 323 323 323 323 322 322
192 190 187 191 197 203 209 208 206 210 213 215 216 218 223 227 233 236 238 239 241 242 244 246 248 250 253 257 261 265 269 272 276 279 282 285 287 288 289 291 292 294 296 299 302 304 305 305 304 303 300 298 297 297 297 299 301 303 306 310 312 312 314 314 314 314 315 315 315 315 315 315 314 314 315 317 319 320 322 322 323 323 323 323 323 323 324 325
200 196 195 197 203 210 215 215 212 214 217 221 222 225 229 234 237 240 241 242 243 243 245 248 250 252 256 259 263 268 272 275 279 282 285 287 288 289 290 292 294 296 299 301 303 304 305 305 303 301 298 297 296 296 298 300 302 305 308 311 312 313 314 314 313 314 314 314 314 315 314 314 315 316 318 320 322 323 323 323 323 323 323 323 324 325 326 327
209 205 202 200 202 210 219 222 218 217 219 223 226 229 233 236 238 240 242 243 244 245 247 251 253 256 259 262 266 270 273 277 281 284 286 288 289 290 291 293 295 298 300 302 304 305 305 303 301 298 296 295 295 296 299 301 303 307 310 311 312 313 312 312 312 312 312 312 314 314 315 315 317 319 321 323 323 324 323 323 323 323 324 324 325 327 328 328
216 211 204 202 205 209 215 223 225 222 222 224 227 231 234 237 240 243 244 245 246 248 251 254 256 259 262 265 268 271 275 279 283 285 287 289 290 291 292 294 297 299 301 303 305 305 303 300 298 295 293 294 294 296 299 301 305 308 310 311 312 311 310 310 310 311 311 312 313 315 316 318 319 321 323 324 324 323 322 322 322 323 324 325 327 328 328 328
222 218 210 205 208 213 216 223 229 228 227 227 229 233 237 239 242 244 247 249 251 253 255 258 260 262 265 268 271 275 279 282 284 286 287 289 289 291 293 295 297 299 301 303 304 303 300 298 295 293 293 293 295 298 300 302 306 308 310 311 309 308 308 308 309 310 312 313 315 316 318 320 321 323 324 324 323 323 322 322 323 323 324 326 327 328 328 328
225 224 220 214 212 215 219 224 230 234 236 237 235 236 239 241 242 245 249 252 255 258 260 262 264 266 269 272 275 278 281 283 284 286 287 288 289 291 294 296 297 300 302 304 303 300 298 295 293 293 293 295 297 299 301 304 307 309 310 308 305 306 307 309 310 312 314 315 317 318 320 321 322 324 325 325 324 324 323 323 324 324 325 326 327 327 327 327
226 227 226 224 220 219 221 225 230 234 238 241 242 241 242 244 245 248 250 254 258 261 264 266 269 271 274 276 278 280 282 283 284 285 286 287 289 291 294 296 299 301 303 302 300 297 295 294 293 294 295 297 298 299 302 306 308 309 307 305 305 307 310 311 313 314 316 317 318 319 320 322 322 323 324 325 324 324 324 324 324 325 326 326 326 326 327 326
228 229 229 228 227 224 224 225 227 230 230 234 243 247 246 248 253 255 255 257 260 263 266 269 272 275 277 279 281 282 282 282 283 284 286 288 290 292 294 297 300 301 301 299 297 296 294 294 294 295 296 297 299 302 305 306 306 305 305 305 308 310 312 313 314 315 316 318 319 319 320 321 321 322 323 323 323 324 323 323 324 325 325 326 326 326 326 325
231 231 230 229 228 227 226 226 227 230 228 229 240 246 246 249 254 256 257 260 262 265 269 272 275 277 279 280 281 281 280 281 282 284 287 289 291 293 296 298 299 299 298 296 294 293 292 292 294 295 297 299 301 303 303 303 304 305 306 308 310 311 312 313 314 315 316 318 319 319 319 321 321 321 322 322 323 323 323 323 323 324 325 325 325 325 325 324
233 232 232 231 230 228 228 228 227 228 228 229 236 241 244 248 252 253 255 260 265 269 272 274 275 276 277 277 277 277 278 281 283 286 288 290 292 295 297 298 298 297 295 292 290 289 290 291 293 295 298 300 301 301 302 303 305 307 308 309 310 311 312 313 314 315 316 318 319 319 319 320 320 321 321 322 322 322 322 322 323 323 324 325 325 325 324 324
234 233 233 233 232 231 231 229 228 227 227 230 234 239 244 248 250 253 256 259 264 269 271 271 271 272 274 275 276 278 280 283 285 287 289 292 294 296 297 297 296 294 292 291 289 289 290 291 294 297 299 301 301 303 304 305 306 308 309 309 310 311 311 312 313 314 316 317 319 319 319 319 319 320 320 321 322 322 322 322 322 323 323 324 324 324 323 323
235 232 231 232 232 232 233 231 228 227 228 231 235 239 244 247 249 253 256 259 263 267 268 268 269 271 273 276 278 281 284 286 287 288 291 293 295 295 295 294 293 292 290 290 289 289 290 293 297 299 301 302 303 304 305 306 307 308 308 309 310 310 310 311 312 313 316 318 319 319 318 318 319 320 320 320 321 321 321 321 322 323 323 324 324 323 322 322
234 230 229 230 231 231 234 231 225 224 226 230 234 238 242 244 247 250 255 259 260 262 264 266 271 273 276 281 284 286 288 288 290 292 293 294 294 293 293 292 291 290 289 290 290 292 294 297 300 301 301 302 303 303 304 306 307 307 307 307 308 308 309 311 312 313 315 317 318 319 318 318 319 320 319 320 321 321 321 321 322 322 323 323 323 322 321 320
232 227 226 228 228 229 232 226 219 218 221 227 233 234 236 239 243 246 249 251 253 258 263 269 273 278 283 287 288 289 289 290 292 294 293 293 292 292 291 290 289 289 290 290 292 295 297 299 300 300 301 301 301 302 304 305 305 305 305 305 305 307 309 311 314 315 316 317 318 319 319 318 318 320 320 320 320 320 320 320 321 322 322 322 322 321 320 319
229 224 224 226 225 227 227 219 214 213 216 225 230 228 229 234 237 240 243 247 252 259 266 270 277 283 287 288 287 288 288 291 294 294 292 291 291 290 289 287 288 290 291 293 295 297 298 299 299 299 300 300 301 302 303 303 303 303 303 304 305 307 310 312 314 316 317 318 318 319 319 318 318 319 319 319 319 319 319 320 320 321 322 321 320 320 319 318
224 221 220 221 223 223 219 210 209 211 215 223 226 227 232 232 233 237 242 249 256 261 268 275 283 287 288 287 286 286 289 292 293 292 291 290 290 288 287 287 289 291 294 295 296 297 297 298 298 299 299 300 301 302 302 302 303 304 305 306 307 309 310 312 314 315 316 317 318 318 318 317 317 318 318 318 318 318 318 319 320 320 320 320 319 318 318 317
218 215 215 217 218 213 206 206 211 214 216 220 223 227 229 229 232 238 244 253 260 267 274 282 288 291 290 288 286 287 289 291 291 291 290 289 287 286 286 288 290 293 294 295 296 297 297 297 297 299 299 300 301 301 302 302 303 305 306 307 308 309 310 311 313 314 315 316 317 316 317 317 316 317 318 318 317 317 318 319 319 319 319 319 318 318 317 317
210 208 210 210 206 200 199 206 215 216 209 210 219 224 225 229 236 242 250 259 267 273 279 285 291 294 293 290 288 289 290 291 291 290 289 288 286 285 287 289 292 294 295 296 297 297 297 297 298 298 299 300 300 301 301 302 304 305 306 307 308 309 310 311 313 314 315 315 316 316 316 317 316 317 317 317 317 317 318 318 319 318 318 318 318 317 317 318
204 205 204 199 196 198 198 203 216 219 210 210 218 223 227 234 241 249 259 267 273 277 282 288 293 294 293 292 292 292 291 291 291 290 288 287 285 286 288 291 293 295 296 297 298 298 298 298 298 298 299 300 300 301 301 302 304 305 306 307 308 309 311 312 314 315 315 315 316 316 316 317 316 316 316 316 316 317 317 318 318 318 318 318 317 317 317 318
201 201 196 192 195 198 196 201 217 225 222 222 225 229 236 242 249 257 264 270 275 278 283 289 292 293 294 295 294 293 292 291 290 289 287 286 285 286 289 292 294 295 297 298 298 298 298 298 298 299 300 300 300 301 302 303 305 306 307 308 309 310 312 313 314 315 315 315 315 316 316 316 315 315 315 315 316 316 317 317 317 317 317 317 317 316 317 319
197 191 188 190 193 195 195 204 215 221 224 227 231 237 243 248 254 261 266 271 275 279 284 289 293 295 297 296 295 294 293 292 291 289 287 286 286 287 290 292 294 295 296 297 298 298 298 299 300 300 300 300 301 302 303 304 306 307 308 309 310 311 313 313 314 315 315 315 315 315 315 314 314 314 315 315 316 317 317 317 317 316 316 316 315 315 317 319
193 187 190 191 190 196 204 208 213 218 223 227 232 239 244 250 257 263 267 272 275 281 286 290 294 297 297 297 296 296 295 293 291 289 288 287 287 288 290 292 294 295 297 298 298 299 300 300 301 301 301 302 303 303 305 306 307 308 309 310 310 311 312 313 314 314 315 314 314 314 314 314 314 315 316 317 317 317 317 316 316 315 315 314 313 315 317 320
189 191 196 194 190 197 205 209 215 220 224 229 234 241 247 254 259 263 269 273 277 282 287 291 296 297 297 298 297 296 295 293 291 289 288 287 287 289 291 293 295 297 298 299 300 300 300 301 301 302 302 303 304 305 306 307 308 309 310 310 310 311 311 312 312 312 313 313 313 314 314 314 316 317 318 318 318 318 317 317 316 316 315 313 313 316 319 321
190 194 197 197 197 201 206 212 217 222 227 232 238 244 251 256 259 265 270 273 277 282 287 292 296 297 298 298 297 296 295 293 290 289 288 288 289 290 292 294 295 297 298 299 300 301 301 302 302 303 303 304 305 306 307 307 308 309 310 310 311 311 310 310 310 310 312 313 314 315 315 315 318 319 319 320 320 319 319 318 317 317 315 315 316 318 321 323
189 193 195 201 206 208 212 217 221 226 232 237 242 247 251 255 260 265 269 273 278 282 286 292 296 298 298 298 297 297 295 293 291 289 289 289 289 290 292 293 295 296 298 299 300 301 302 302 303 303 304 304 305 306 307 308 309 310 310 311 311 311 311 311 311 311 313 314 316 317 317 317 319 320 320 322 322 321 321 320 319 319 318 318 320 322 324 326
189 194 199 204 209 212 217 223 227 231 235 237 239 244 249 256 263 266 270 276 280 283 287 293 296 298 298 298 298 297 295 293 291 290 290 289 290 291 292 293 294 295 297 298 300 301 303 303 303 304 305 306 307 308 309 310 310 310 310 310 311 311 311 312 312 313 314 316 317 319 319 317 319 322 322 323 322 321 322 321 321 321 322 324 324 325 327 328
191 196 201 207 213 217 220 224 228 230 231 232 236 244 253 261 267 270 274 278 281 284 288 292 295 298 299 299 298 296 295 293 291 290 290 290 290 291 292 293 294 295 297 298 300 302 303 304 304 305 306 308 309 310 311 310 310 310 309 310 310 311 312 312 313 313 314 317 319 321 320 317 319 322 322 322 322 321 322 323 324 326 328 329 328 328 330 329
194 198 201 209 215 217 220 222 225 228 232 236 242 249 256 263 269 273 275 276 278 283 288 292 296 298 299 299 298 296 294 293 291 291 290 290 291 291 292 294 295 296 298 299 301 303 305 306 307 307 308 309 310 310 310 309 310 309 309 310 310 311 312 313 314 314 315 318 320 323 322 316 318 321 321 322 322 321 323 326 328 331 333 332 330 330 331 329
200 206 204 208 212 215 220 223 228 235 240 244 249 255 260 265 271 274 274 275 279 285 290 294 296 298 299 299 297 296 295 293 292 292 291 290 291 292 293 294 295 297 299 300 302 304 305 307 308 308 308 309 309 309 309 309 310 310 310 311 311 312 313 314 316 317 318 320 322 327 324 317 318 321 320 323 323 322 326 330 332 335 334 333 331 330 330 329
206 212 209 210 211 215 222 227 233 240 245 248 253 258 263 267 272 274 273 275 281 287 292 295 296 298 299 298 297 296 295 293 292 292 291 291 292 293 293 295 296 298 299 301 302 304 305 306 307 307 307 308 308 308 309 310 310 311 311 312 312 313 315 318 319 319 320 322 323 328 326 318 318 321 322 326 326 326 331 334 335 336 334 332 330 329 330 329
211 216 215 215 215 216 222 228 235 241 247 251 255 259 264 267 271 271 271 275 283 288 292 295 297 298 299 299 298 297 295 294 293 293 293 292 293 293 294 296 297 298 299 300 302 303 304 306 306 306 307 308 308 309 309 310 311 312 312 312 313 314 317 321 322 321 322 321 322 327 327 321 319 321 326 332 331 330 335 337 335 335 333 332 329 328 329 329
220 226 225 226 226 226 228 233 238 245 250 254 257 261 264 267 269 269 271 277 284 289 292 295 296 299 300 299 298 297 296 295 294 294 294 294 294 295 295 296 297 298 299 300 301 302 304 305 306 306 307 308 309 310 310 311 312 313 313 313 314 316 320 324 324 322 321 321 322 327 329 325 320 322 331 337 333 332 335 335 334 333 332 331 329 328 329 330
229 234 234 235 236 237 239 240 243 248 254 257 260 262 263 264 266 269 274 280 285 289 292 295 297 299 300 300 298 297 297 296 296 296 296 295 296 296 296 297 298 299 300 301 302 303 304 306 306 307 308 310 310 311 311 312 313 314 313 313 314 317 322 325 324 323 321 321 324 328 333 329 321 324 336 338 334 333 333 332 333 332 331 331 330 328 329 330
232 235 236 237 239 243 246 247 248 252 256 259 260 260 260 263 269 275 279 282 286 290 293 296 298 300 300 299 298 297 297 298 298 298 297 297 297 298 298 299 299 300 301 302 303 304 305 306 306 307 309 310 311 312 312 313 314 314 313 313 315 319 323 325 325 322 321 324 327 330 339 335 324 328 337 336 334 333 331 330 331 330 331 332 330 329 329 330
231 234 236 238 241 246 249 250 251 253 255 257 257 258 261 267 274 279 281 283 288 292 294 296 298 299 299 299 298 297 298 299 299 299 299 299 299 300 300 301 301 302 303 304 305 306 307 308 307 307 308 309 310 310 311 312 313 313 313 313 316 320 324 325 324 321 322 328 330 332 342 339 328 332 336 334 334 333 330 329 329 329 331 332 331 329 328 329
230 234 236 239 243 246 247 247 249 252 254 255 257 261 267 273 277 280 282 285 289 293 295 296 298 298 298 298 298 299 300 301 301 301 300 301 301 302 302 303 303 304 305 305 306 307 308 309 309 309 310 310 310 309 310 312 313 313 312 313 317 323 325 325 323 321 325 334 335 332 338 339 332 333 335 332 333 332 330 329 328 328 330 331 331 329 328 329
231 234 237 241 244 244 244 247 251 253 255 257 262 269 274 278 280 282 283 286 290 293 295 296 297 298 297 298 299 301 302 303 303 302 302 302 303 303 304 304 305 305 305 306 306 307 309 310 310 311 312 312 311 311 313 314 315 314 313 315 321 325 326 324 323 324 329 337 337 332 334 336 333 332 332 330 330 331 329 327 326 326 328 330 331 329 328 329
232 235 238 242 244 242 243 249 253 255 258 264 272 278 279 281 283 284 284 287 290 294 295 296 297 297 298 299 301 302 303 304 304 303 303 304 304 304 305 305 305 306 306 306 307 308 310 310 311 312 313 312 311 312 314 316 316 315 314 318 324 327 326 326 326 327 330 334 336 332 331 332 332 331 330 329 329 330 328 325 324 325 327 330 330 329 328 328
231 234 239 242 241 241 246 253 256 259 266 273 278 279 280 281 283 284 286 288 292 294 295 296 297 298 299 300 302 303 303 304 304 303 304 304 304 304 305 305 305 306 306 307 307 309 311 311 311 313 314 313 312 313 315 316 316 315 316 321 327 327 328 330 328 327 329 332 333 332 330 330 329 330 331 329 329 330 328 325 323 324 327 329 329 328 328 327
229 233 237 239 241 246 253 259 263 268 273 276 277 278 280 282 284 285 287 290 293 295 296 296 297 298 300 301 302 302 303 303 303 303 304 304 304 305 305 305 306 306 307 307 308 309 312 313 313 315 316 314 312 313 315 315 315 316 318 325 330 329 330 331 328 325 328 331 331 330 331 329 329 330 331 329 329 329 328 325 323 324 327 329 328 327 327 326
228 232 236 241 247 254 260 265 269 272 275 276 278 279 281 283 285 287 289 292 293 295 295 296 297 298 300 301 301 302 302 302 303 303 304 304 304 305 305 306 306 307 307 308 310 311 313 315 315 316 317 314 312 313 314 315 315 318 323 328 330 330 330 330 326 324 326 329 329 329 330 330 328 329 330 329 328 329 328 325 323 324 327 327 327 326 326 326
230 235 241 247 254 259 263 266 269 272 275 277 279 280 282 284 287 289 291 292 293 293 294 295 297 298 299 300 301 302 302 303 304 304 304 304 305 305 306 306 307 308 309 310 311 313 314 316 316 316 316 314 311 313 316 315 316 322 329 330 328 329 330 328 326 324 325 327 328 328 329 329 328 328 328 329 329 329 328 325 322 323 326 327 326 325 325 325
239 245 250 254 258 261 263 266 269 273 275 277 279 281 283 286 288 289 291 291 292 292 293 295 296 298 299 300 301 302 303 303 304 304 304 305 305 306 307 308 309 310 310 311 313 315 315 316 315 316 317 315 314 317 318 316 319 327 330 328 327 328 329 328 326 323 324 327 328 328 329 328 327 327 328 329 329 329 328 325 322 323 325 326 325 324 324 324